FLI105 EKVG-BIKF

Flight info

Callsign FLI105
Flight time 1h 12m
Altitude 38000
Route MY DCT ING DCT NASBU NASBU2H
Aircraft A20N/M-SDE2E3FGHIRWXY/LB1

Departure

Time 2026-05-08 15:45
Airport Vágar Airport (EKVG)

Arrival

Time 2026-05-08 16:57
Airport Keflavik International Airport (BIKF)
Time Latitude Longitude Altitude Speed Heading
2026-05-08 15:23 62.06692 -7.27942 292 ft 0 kts 28°
2026-05-08 15:36 62.06676 -7.27961 294 ft 3 kts 18°
2026-05-08 15:36 62.06658 -7.27967 294 ft 3 kts 340°
2026-05-08 15:37 62.06644 -7.27947 293 ft 3 kts 295°
2026-05-08 15:37 62.06641 -7.27928 291 ft 1 kts 285°
2026-05-08 15:37 62.06640 -7.27925 291 ft 0 kts 285°
2026-05-08 15:39 62.06641 -7.27930 289 ft 1 kts 285°
2026-05-08 15:39 62.06645 -7.27964 292 ft 4 kts 285°
2026-05-08 15:39 62.06650 -7.28043 290 ft 6 kts 258°
2026-05-08 15:39 62.06607 -7.28087 290 ft 7 kts 187°
2026-05-08 15:40 62.06568 -7.28098 292 ft 0 kts 188°
2026-05-08 15:41 62.06566 -7.28098 291 ft 2 kts 188°
2026-05-08 15:41 62.06525 -7.28125 290 ft 10 kts 203°
2026-05-08 15:41 62.06476 -7.28147 288 ft 6 kts 163°
2026-05-08 15:41 62.06416 -7.27950 295 ft 22 kts 118°
2026-05-08 15:42 62.06365 -7.27740 297 ft 24 kts 116°
2026-05-08 15:42 62.06286 -7.27420 290 ft 26 kts 118°
2026-05-08 15:42 62.06197 -7.27065 276 ft 28 kts 118°
2026-05-08 15:42 62.06104 -7.26698 267 ft 29 kts 118°
2026-05-08 15:43 62.06009 -7.26313 251 ft 30 kts 117°
2026-05-08 15:43 62.05959 -7.26114 245 ft 8 kts 115°
2026-05-08 15:43 62.05952 -7.26015 245 ft 4 kts 111°
2026-05-08 15:43 62.05929 -7.26026 246 ft 4 kts 251°
2026-05-08 15:44 62.05954 -7.26091 244 ft 8 kts 306°
2026-05-08 15:44 62.06032 -7.26407 255 ft 57 kts 298°
2026-05-08 15:44 62.06325 -7.27585 297 ft 120 kts 299°
2026-05-08 15:44 62.06735 -7.29250 773 ft 131 kts 302°
2026-05-08 15:45 62.07185 -7.31009 1554 ft 137 kts 304°
2026-05-08 15:45 62.07558 -7.32961 2278 ft 153 kts 296°
2026-05-08 15:45 62.07836 -7.35316 2728 ft 173 kts 291°
2026-05-08 15:45 62.08112 -7.37981 3070 ft 197 kts 290°
2026-05-08 15:46 62.08417 -7.40997 3461 ft 220 kts 288°
2026-05-08 15:46 62.08742 -7.44267 4203 ft 230 kts 287°
2026-05-08 15:46 62.09144 -7.47585 5066 ft 231 kts 292°
2026-05-08 15:46 62.09627 -7.50938 5912 ft 239 kts 290°
2026-05-08 15:47 62.10114 -7.54380 6779 ft 244 kts 289°
2026-05-08 15:47 62.10610 -7.57873 7633 ft 248 kts 289°
2026-05-08 15:47 62.11211 -7.61346 8502 ft 251 kts 296°
2026-05-08 15:47 62.11973 -7.64670 9391 ft 254 kts 298°
2026-05-08 15:48 62.13652 -7.71646 10550 ft 278 kts 297°
2026-05-08 15:48 62.14535 -7.75398 10972 ft 294 kts 297°
2026-05-08 15:48 62.15460 -7.79430 11446 ft 307 kts 296°
2026-05-08 15:49 62.16404 -7.83593 12104 ft 314 kts 296°
2026-05-08 15:49 62.17364 -7.87854 12812 ft 319 kts 296°
2026-05-08 15:49 62.18334 -7.92148 13587 ft 322 kts 296°
2026-05-08 15:49 62.19320 -7.96469 14285 ft 325 kts 296°
2026-05-08 15:50 62.20333 -8.00827 15016 ft 327 kts 296°
2026-05-08 15:50 62.21339 -8.05216 15777 ft 329 kts 296°
2026-05-08 15:50 62.22342 -8.09630 16502 ft 331 kts 296°
2026-05-08 15:50 62.23351 -8.14112 17146 ft 336 kts 296°
2026-05-08 15:51 62.24376 -8.18670 17768 ft 341 kts 296°
2026-05-08 15:51 62.25411 -8.23294 18372 ft 345 kts 295°
2026-05-08 15:51 62.25700 -8.24588 18527 ft 346 kts 295°
2026-05-08 15:52 62.25904 -8.25497 18639 ft 347 kts 296°
2026-05-08 15:52 62.26953 -8.30182 19201 ft 350 kts 296°
2026-05-08 15:52 62.28001 -8.34860 20011 ft 345 kts 296°
2026-05-08 15:53 62.29044 -8.39500 20690 ft 345 kts 296°
2026-05-08 15:53 62.30088 -8.44166 21228 ft 349 kts 296°
2026-05-08 15:53 62.31147 -8.48919 21650 ft 356 kts 296°
2026-05-08 15:53 62.32215 -8.53719 22301 ft 355 kts 296°
2026-05-08 15:54 62.33283 -8.58534 22846 ft 359 kts 295°
2026-05-08 15:54 62.34371 -8.63462 23086 ft 369 kts 296°
2026-05-08 15:54 62.35478 -8.68466 23570 ft 372 kts 296°
2026-05-08 15:54 62.36599 -8.73547 23879 ft 378 kts 295°
2026-05-08 15:55 62.37727 -8.78675 24390 ft 377 kts 295°
2026-05-08 15:55 62.39971 -8.88919 25218 ft 382 kts 296°
2026-05-08 15:55 62.41113 -8.94137 25575 ft 384 kts 296°
2026-05-08 15:56 62.42248 -8.99345 26087 ft 383 kts 295°
2026-05-08 15:56 62.43380 -9.04568 26477 ft 385 kts 295°
2026-05-08 15:56 62.44519 -9.09834 26837 ft 388 kts 295°
2026-05-08 15:56 62.45645 -9.15062 27230 ft 390 kts 295°
2026-05-08 15:57 62.46793 -9.20402 27570 ft 393 kts 295°
2026-05-08 15:57 62.47951 -9.25789 27832 ft 398 kts 295°
2026-05-08 15:57 62.49127 -9.31276 27984 ft 405 kts 295°
2026-05-08 15:57 62.50317 -9.36831 28255 ft 409 kts 295°
2026-05-08 15:58 62.51520 -9.42453 28565 ft 412 kts 295°
2026-05-08 15:58 62.52729 -9.48120 28907 ft 414 kts 295°
2026-05-08 15:58 62.53523 -9.51863 29234 ft 413 kts 295°
2026-05-08 15:58 62.55136 -9.59482 29629 ft 416 kts 294°
2026-05-08 15:59 62.55934 -9.63272 29740 ft 420 kts 295°
2026-05-08 15:59 62.57567 -9.71055 29970 ft 427 kts 295°
2026-05-08 15:59 62.58802 -9.76946 30207 ft 430 kts 295°
2026-05-08 15:59 62.60043 -9.82876 30425 ft 432 kts 295°
2026-05-08 16:00 62.61264 -9.88729 30744 ft 430 kts 295°
2026-05-08 16:00 62.62498 -9.94666 30931 ft 433 kts 295°
2026-05-08 16:00 62.63732 -10.00610 31230 ft 430 kts 295°
2026-05-08 16:00 62.64959 -10.06539 31537 ft 429 kts 294°
2026-05-08 16:01 62.66186 -10.12495 31732 ft 433 kts 294°
2026-05-08 16:01 62.67418 -10.18490 31875 ft 436 kts 294°
2026-05-08 16:01 62.68654 -10.24506 32264 ft 431 kts 294°
2026-05-08 16:01 62.69872 -10.30461 32593 ft 430 kts 294°
2026-05-08 16:02 62.71087 -10.36435 32785 ft 433 kts 294°
2026-05-08 16:02 62.72314 -10.42480 32960 ft 435 kts 294°
2026-05-08 16:02 62.73531 -10.48494 33406 ft 431 kts 295°
2026-05-08 16:02 62.74738 -10.54474 33691 ft 432 kts 294°
2026-05-08 16:03 62.75953 -10.60505 33818 ft 436 kts 294°
2026-05-08 16:03 62.77173 -10.66571 34042 ft 436 kts 295°
2026-05-08 16:03 62.78390 -10.72634 34321 ft 434 kts 294°
2026-05-08 16:03 62.79587 -10.78618 34511 ft 437 kts 294°
2026-05-08 16:04 62.80801 -10.84720 34691 ft 438 kts 294°
2026-05-08 16:04 62.82020 -10.90859 34804 ft 441 kts 294°
2026-05-08 16:04 62.83247 -10.97050 34939 ft 444 kts 294°
2026-05-08 16:04 62.84470 -11.03252 35129 ft 444 kts 294°
2026-05-08 16:05 62.85682 -11.09432 35472 ft 440 kts 294°
2026-05-08 16:05 62.86882 -11.15591 35759 ft 437 kts 294°
2026-05-08 16:05 62.88075 -11.21729 35964 ft 438 kts 293°
2026-05-08 16:05 62.89272 -11.27886 36089 ft 439 kts 293°
2026-05-08 16:06 62.90456 -11.33968 36250 ft 439 kts 294°
2026-05-08 16:06 62.91662 -11.40179 36548 ft 435 kts 294°
2026-05-08 16:06 62.92828 -11.46199 36774 ft 434 kts 294°
2026-05-08 16:06 62.94013 -11.52330 36906 ft 435 kts 294°
2026-05-08 16:07 62.95194 -11.58479 37035 ft 436 kts 294°
2026-05-08 16:07 62.96369 -11.64622 37185 ft 437 kts 294°
2026-05-08 16:07 62.97545 -11.70783 37311 ft 437 kts 294°
2026-05-08 16:07 62.98717 -11.76955 37466 ft 437 kts 294°
2026-05-08 16:08 62.99883 -11.83120 37643 ft 437 kts 293°
2026-05-08 16:08 63.01052 -11.89305 37778 ft 437 kts 294°
2026-05-08 16:08 63.02217 -11.95487 37898 ft 437 kts 293°
2026-05-08 16:08 63.03377 -12.01672 38062 ft 436 kts 293°
2026-05-08 16:09 63.05306 -12.12003 38117 ft 439 kts 294°
2026-05-08 16:09 63.08003 -12.26498 38125 ft 441 kts 293°
2026-05-08 16:10 63.10324 -12.39059 38133 ft 441 kts 294°
2026-05-08 16:10 63.12612 -12.51545 38149 ft 437 kts 294°
2026-05-08 16:11 63.14887 -12.64016 38138 ft 438 kts 293°
2026-05-08 16:11 63.17159 -12.76559 38140 ft 439 kts 292°
2026-05-08 16:12 63.19419 -12.89116 38164 ft 439 kts 293°
2026-05-08 16:12 63.21661 -13.01660 38159 ft 439 kts 294°
2026-05-08 16:13 63.23900 -13.14255 38183 ft 438 kts 295°
2026-05-08 16:13 63.26121 -13.26865 38196 ft 438 kts 294°
2026-05-08 16:14 63.28320 -13.39459 38205 ft 436 kts 294°
2026-05-08 16:14 63.30509 -13.52033 38218 ft 435 kts 293°
2026-05-08 16:15 63.32682 -13.64529 38195 ft 436 kts 294°
2026-05-08 16:15 63.34847 -13.77124 38204 ft 436 kts 292°
2026-05-08 16:16 63.37012 -13.89768 38176 ft 437 kts 292°
2026-05-08 16:16 63.39165 -14.02469 38196 ft 437 kts 292°
2026-05-08 16:17 63.40941 -14.13046 38202 ft 437 kts 292°
2026-05-08 16:17 63.43431 -14.27940 38228 ft 437 kts 292°
2026-05-08 16:18 63.45550 -14.40684 38228 ft 437 kts 292°
2026-05-08 16:18 63.47654 -14.53423 38225 ft 437 kts 292°
2026-05-08 16:19 63.49734 -14.66118 38230 ft 437 kts 292°
2026-05-08 16:19 63.51816 -14.78925 38209 ft 438 kts 291°
2026-05-08 16:20 63.53887 -14.91765 38214 ft 438 kts 291°
2026-05-08 16:20 63.55951 -15.04644 38216 ft 439 kts 291°
2026-05-08 16:21 63.58020 -15.17555 38206 ft 440 kts 291°
2026-05-08 16:21 63.60071 -15.30555 38207 ft 442 kts 291°
2026-05-08 16:22 63.61776 -15.41437 38208 ft 443 kts 291°
2026-05-08 16:22 63.64157 -15.56667 38213 ft 444 kts 290°
2026-05-08 16:23 63.65853 -15.67593 38204 ft 444 kts 291°
2026-05-08 16:23 63.67880 -15.80758 38225 ft 444 kts 291°
2026-05-08 16:24 63.69890 -15.93929 38241 ft 444 kts 291°
2026-05-08 16:24 63.71887 -16.07115 38243 ft 444 kts 291°
2026-05-08 16:25 63.73872 -16.20311 38240 ft 443 kts 291°
2026-05-08 16:25 63.75845 -16.33513 38239 ft 443 kts 291°
2026-05-08 16:26 63.77791 -16.46657 38244 ft 443 kts 290°
2026-05-08 16:26 63.79640 -16.59213 38247 ft 443 kts 290°
2026-05-08 16:27 63.80781 -16.72873 38244 ft 447 kts 279°
2026-05-08 16:27 63.81480 -16.86871 38244 ft 447 kts 279°
2026-05-08 16:28 63.82178 -17.00847 38244 ft 447 kts 279°
2026-05-08 16:28 63.82864 -17.14826 38247 ft 447 kts 278°
2026-05-08 16:29 63.83525 -17.28823 38244 ft 447 kts 278°
2026-05-08 16:29 63.84212 -17.43588 38249 ft 446 kts 279°
2026-05-08 16:30 63.84850 -17.57543 38264 ft 444 kts 279°
2026-05-08 16:30 63.85477 -17.71432 38270 ft 442 kts 279°
2026-05-08 16:31 63.86090 -17.85312 38269 ft 441 kts 279°
2026-05-08 16:31 63.86689 -17.99161 38275 ft 441 kts 279°
2026-05-08 16:32 63.87266 -18.12993 38281 ft 440 kts 279°
2026-05-08 16:32 63.87832 -18.26831 37389 ft 444 kts 279°
2026-05-08 16:33 63.88116 -18.33852 36405 ft 447 kts 280°
2026-05-08 16:33 63.88395 -18.40876 35585 ft 446 kts 280°
2026-05-08 16:33 63.88666 -18.47882 34797 ft 444 kts 281°
2026-05-08 16:33 63.88929 -18.54834 33975 ft 440 kts 281°
2026-05-08 16:34 63.89186 -18.61730 33192 ft 435 kts 282°
2026-05-08 16:34 63.89436 -18.68546 32371 ft 431 kts 282°
2026-05-08 16:34 63.89684 -18.75295 31668 ft 426 kts 282°
2026-05-08 16:34 63.89930 -18.81967 31026 ft 421 kts 283°
2026-05-08 16:35 63.90169 -18.88545 30432 ft 415 kts 283°
2026-05-08 16:35 63.90398 -18.95028 29706 ft 409 kts 283°
2026-05-08 16:35 63.90618 -19.01370 29041 ft 404 kts 283°
2026-05-08 16:35 63.90837 -19.07716 28310 ft 400 kts 283°
2026-05-08 16:36 63.91048 -19.13968 27837 ft 392 kts 283°
2026-05-08 16:36 63.91248 -19.20079 27380 ft 384 kts 283°
2026-05-08 16:36 63.91445 -19.26082 26906 ft 377 kts 283°
2026-05-08 16:36 63.91638 -19.31977 26451 ft 371 kts 283°
2026-05-08 16:37 63.91831 -19.37776 26006 ft 365 kts 283°
2026-05-08 16:37 63.92023 -19.43480 25569 ft 360 kts 283°
2026-05-08 16:37 63.92208 -19.49125 25147 ft 355 kts 283°
2026-05-08 16:37 63.92385 -19.54691 24726 ft 351 kts 283°
2026-05-08 16:38 63.92556 -19.60194 24309 ft 347 kts 283°
2026-05-08 16:38 63.92722 -19.65569 23896 ft 343 kts 283°
2026-05-08 16:38 63.92884 -19.70944 23440 ft 339 kts 282°
2026-05-08 16:38 63.93042 -19.76257 23021 ft 334 kts 282°
2026-05-08 16:39 63.93194 -19.81477 22619 ft 329 kts 282°
2026-05-08 16:39 63.93343 -19.86643 22217 ft 325 kts 282°
2026-05-08 16:39 63.93491 -19.91739 21811 ft 321 kts 282°
2026-05-08 16:39 63.93636 -19.96778 21404 ft 317 kts 282°
2026-05-08 16:40 63.93775 -20.01746 21008 ft 314 kts 282°
2026-05-08 16:40 63.93914 -20.06683 20610 ft 311 kts 281°
2026-05-08 16:40 63.94048 -20.11577 20213 ft 309 kts 281°
2026-05-08 16:40 63.94179 -20.16449 19815 ft 308 kts 281°
2026-05-08 16:41 63.94306 -20.21298 19416 ft 306 kts 281°
2026-05-08 16:41 63.94430 -20.26123 19020 ft 305 kts 281°
2026-05-08 16:41 63.94555 -20.30924 18632 ft 303 kts 281°
2026-05-08 16:42 63.94815 -20.40485 17769 ft 301 kts 281°
2026-05-08 16:42 63.94946 -20.45145 17378 ft 299 kts 280°
2026-05-08 16:42 63.95076 -20.49858 16981 ft 297 kts 280°
2026-05-08 16:42 63.95204 -20.54546 16589 ft 296 kts 280°
2026-05-08 16:43 63.95330 -20.59224 16197 ft 295 kts 279°
2026-05-08 16:43 63.95453 -20.63870 15807 ft 294 kts 279°
2026-05-08 16:43 63.95574 -20.68512 15418 ft 293 kts 279°
2026-05-08 16:43 63.95695 -20.73155 15027 ft 293 kts 278°
2026-05-08 16:44 63.95814 -20.77781 14611 ft 293 kts 278°
2026-05-08 16:44 63.95932 -20.82399 14244 ft 292 kts 278°
2026-05-08 16:44 63.96045 -20.87006 13821 ft 291 kts 278°
2026-05-08 16:44 63.96152 -20.91540 13426 ft 290 kts 278°
2026-05-08 16:45 63.96257 -20.96096 13026 ft 288 kts 278°
2026-05-08 16:45 63.96363 -21.00631 12627 ft 286 kts 277°
2026-05-08 16:45 63.96468 -21.05111 12235 ft 281 kts 277°
2026-05-08 16:45 63.96572 -21.09533 11841 ft 279 kts 277°
2026-05-08 16:46 63.96676 -21.13942 11453 ft 278 kts 277°
2026-05-08 16:46 63.96778 -21.18322 11068 ft 277 kts 277°
2026-05-08 16:46 63.96881 -21.22692 10665 ft 275 kts 277°
2026-05-08 16:46 63.96981 -21.27010 10410 ft 268 kts 276°
2026-05-08 16:47 63.97075 -21.31207 10183 ft 262 kts 276°
2026-05-08 16:47 63.97165 -21.35365 10047 ft 262 kts 276°
2026-05-08 16:47 63.97256 -21.39513 9898 ft 262 kts 276°
2026-05-08 16:47 63.97347 -21.43651 9586 ft 260 kts 276°
2026-05-08 16:48 63.97435 -21.47767 9246 ft 260 kts 276°
2026-05-08 16:48 63.97517 -21.51846 8896 ft 259 kts 276°
2026-05-08 16:48 63.97596 -21.55929 8547 ft 258 kts 276°
2026-05-08 16:48 63.97670 -21.59950 8202 ft 257 kts 276°
2026-05-08 16:49 63.97745 -21.64003 7838 ft 256 kts 275°
2026-05-08 16:49 63.97819 -21.68017 7508 ft 252 kts 275°
2026-05-08 16:49 63.97894 -21.71996 7058 ft 253 kts 275°
2026-05-08 16:49 63.97970 -21.76021 6664 ft 252 kts 275°
2026-05-08 16:50 63.98052 -21.78698 6380 ft 250 kts 278°
2026-05-08 16:50 63.98226 -21.82651 5904 ft 251 kts 275°
2026-05-08 16:50 63.98286 -21.86595 5457 ft 252 kts 272°
2026-05-08 16:50 63.98303 -21.90556 5172 ft 245 kts 272°
2026-05-08 16:51 63.98319 -21.94434 5058 ft 247 kts 272°
2026-05-08 16:51 63.98338 -21.98298 5008 ft 248 kts 272°
2026-05-08 16:51 63.98357 -22.02232 5009 ft 248 kts 272°
2026-05-08 16:51 63.98374 -22.06174 4894 ft 249 kts 272°
2026-05-08 16:52 63.98390 -22.10112 4601 ft 248 kts 272°
2026-05-08 16:52 63.98405 -22.14034 4261 ft 247 kts 272°
2026-05-08 16:52 63.98419 -22.17933 3919 ft 245 kts 271°
2026-05-08 16:52 63.98432 -22.21796 3579 ft 243 kts 271°
2026-05-08 16:53 63.98453 -22.29225 2910 ft 221 kts 271°
2026-05-08 16:53 63.98462 -22.32644 2608 ft 209 kts 271°
2026-05-08 16:53 63.98469 -22.35888 2319 ft 200 kts 271°
2026-05-08 16:54 63.98475 -22.38853 2053 ft 189 kts 271°
2026-05-08 16:54 63.98480 -22.41708 1820 ft 170 kts 271°
2026-05-08 16:54 63.98485 -22.44271 1581 ft 152 kts 271°
2026-05-08 16:54 63.98488 -22.46554 1361 ft 137 kts 272°
2026-05-08 16:55 63.98491 -22.48677 1162 ft 131 kts 272°
2026-05-08 16:55 63.98495 -22.50738 974 ft 129 kts 271°
2026-05-08 16:55 63.98500 -22.52778 795 ft 128 kts 271°
2026-05-08 16:55 63.98503 -22.54796 660 ft 127 kts 271°
2026-05-08 16:56 63.98502 -22.56809 465 ft 127 kts 271°
2026-05-08 16:56 63.98505 -22.58823 274 ft 127 kts 270°
2026-05-08 16:56 63.98505 -22.60754 175 ft 113 kts 270°
2026-05-08 16:56 63.98502 -22.62257 149 ft 75 kts 270°
2026-05-08 16:57 63.98505 -22.63204 137 ft 50 kts 270°
2026-05-08 16:57 63.98547 -22.63784 135 ft 29 kts 295°
2026-05-08 16:57 63.98612 -22.64053 125 ft 14 kts 304°
2026-05-08 16:57 63.98706 -22.64154 123 ft 18 kts
2026-05-08 16:58 63.98814 -22.64150 125 ft 11 kts
2026-05-08 16:58 63.98853 -22.64076 123 ft 7 kts 78°
2026-05-08 16:58 63.98855 -22.63989 126 ft 12 kts 91°
2026-05-08 16:58 63.98855 -22.63681 126 ft 26 kts 89°
2026-05-08 16:59 63.98854 -22.63266 134 ft 22 kts 89°
2026-05-08 16:59 63.98854 -22.62996 136 ft 11 kts 91°
2026-05-08 16:59 63.98885 -22.62877 138 ft 8 kts 20°
2026-05-08 16:59 63.98932 -22.62843 138 ft 6 kts 16°
2026-05-08 17:00 63.98967 -22.62819 139 ft 5 kts 17°
2026-05-08 17:00 63.98994 -22.62800 139 ft 4 kts 17°
2026-05-08 17:00 63.99012 -22.62788 140 ft 2 kts 17°
2026-05-08 17:00 63.99051 -22.62760 141 ft 7 kts 17°
2026-05-08 17:01 63.99094 -22.62730 144 ft 6 kts 17°
2026-05-08 17:01 63.99174 -22.62679 142 ft 15 kts 10°
2026-05-08 17:01 63.99253 -22.62717 142 ft 12 kts 324°
2026-05-08 17:01 63.99335 -22.62748 142 ft 12 kts 360°
2026-05-08 17:02 63.99411 -22.62701 142 ft 11 kts 19°
2026-05-08 17:02 63.99478 -22.62660 142 ft 9 kts 14°
2026-05-08 17:02 63.99520 -22.62652 142 ft 4 kts 360°
2026-05-08 17:02 63.99538 -22.62631 142 ft 2 kts 50°
2026-05-08 17:03 63.99542 -22.62601 142 ft 2 kts 76°
2026-05-08 17:03 63.99543 -22.62558 142 ft 5 kts 88°
2026-05-08 17:03 63.99543 -22.62477 142 ft 2 kts 90°
2026-05-08 17:03 63.99543 -22.62465 142 ft 0 kts 90°